Time,TemperatureF,DewpointF,PressureIn,WindDirection,WindDirectionDegrees,WindSpeedMPH,WindSpeedGustMPH,Humidity,HourlyPrecipIn,Conditions,Clouds,dailyrainin,SoftwareType,DateUTC
2013-01-13 12:03:00,27.0,26.0,30.08,NNE,21,0.0,0.0,94,0.00,,,0.00,,2013-01-13 18:03:00,
2013-01-13 12:12:00,27.0,26.0,30.08,NNE,21,0.0,0.0,94,0.00,,,0.00,,2013-01-13 18:12:00,
2013-01-13 12:23:00,27.0,26.0,30.08,NNE,22,0.0,0.0,94,0.00,,,0.00,,2013-01-13 18:23:00,
2013-01-13 12:33:00,27.0,26.0,30.07,NNE,21,0.0,0.0,94,0.00,,,0.00,,2013-01-13 18:33:00,
2013-01-13 12:43:00,27.0,26.0,30.07,NNE,21,0.0,0.0,94,0.00,,,0.00,,2013-01-13 18:43:00,
2013-01-13 12:53:00,28.0,27.0,30.09,NNE,22,0.0,0.0,94,0.00,,,0.00,,2013-01-13 18:53:00,
2013-01-13 13:03:00,28.0,26.0,30.07,NNE,21,0.0,0.0,93,0.00,,,0.00,,2013-01-13 19:03:00,
2013-01-13 13:12:00,28.0,26.0,30.07,NNE,21,0.0,0.0,93,0.00,,,0.00,,2013-01-13 19:12:00,
2013-01-13 13:22:00,28.0,26.0,30.07,NNE,21,0.0,0.0,92,0.00,,,0.00,,2013-01-13 19:22:00,
2013-01-13 13:33:00,28.0,26.0,30.07,NNE,22,0.0,0.0,92,0.00,,,0.00,,2013-01-13 19:33:00,
2013-01-13 13:43:00,28.0,26.0,30.07,NNE,22,0.0,0.0,92,0.00,,,0.00,,2013-01-13 19:43:00,
2013-01-13 13:52:00,28.0,26.0,30.08,NNE,21,0.0,0.0,93,0.00,,,0.00,,2013-01-13 19:52:00,
2013-01-13 14:03:00,28.0,26.0,30.08,NNE,21,0.0,0.0,93,0.00,,,0.00,,2013-01-13 20:03:00,
2013-01-13 14:12:00,28.0,26.0,30.08,NNE,21,0.0,0.0,93,0.00,,,0.00,,2013-01-13 20:12:00,
2013-01-13 14:22:00,28.0,25.0,30.10,NNE,22,0.0,0.0,90,0.00,,,0.00,,2013-01-13 20:22:00,
2013-01-13 14:33:00,27.0,24.0,30.11,NNE,21,0.0,0.0,90,0.00,,,0.00,,2013-01-13 20:33:00,
2013-01-13 14:43:00,27.0,24.0,30.11,NNE,21,0.0,0.0,90,0.00,,,0.00,,2013-01-13 20:43:00,
2013-01-13 14:53:00,27.0,25.0,30.13,NNE,22,0.0,0.0,91,0.00,,,0.00,,2013-01-13 20:53:00,
2013-01-13 15:03:00,27.0,24.0,30.15,NNE,22,0.0,0.0,89,0.00,,,0.00,,2013-01-13 21:03:00,
2013-01-13 15:12:00,27.0,24.0,30.15,NNE,22,0.0,0.0,89,0.00,,,0.00,,2013-01-13 21:12:00,
2013-01-13 15:23:00,27.0,24.0,30.16,NNE,22,0.0,0.0,89,0.00,,,0.00,,2013-01-13 21:23:00,
2013-01-13 15:33:00,28.0,25.0,30.18,NNE,22,0.0,0.0,90,0.00,,,0.00,,2013-01-13 21:33:00,
2013-01-13 15:43:00,28.0,25.0,30.18,NNE,22,0.0,0.0,90,0.00,,,0.00,,2013-01-13 21:43:00,
2013-01-13 15:52:00,28.0,25.0,30.19,NNE,21,0.0,0.0,89,0.00,,,0.00,,2013-01-13 21:52:00,
2013-01-13 16:02:00,27.0,24.0,30.20,NNE,21,0.0,0.0,90,0.00,,,0.00,,2013-01-13 22:02:00,
2013-01-13 16:12:00,27.0,24.0,30.20,NNE,21,0.0,0.0,90,0.00,,,0.00,,2013-01-13 22:12:00,
2013-01-13 16:22:00,28.0,25.0,30.21,NNE,21,0.0,0.0,88,0.00,,,0.00,,2013-01-13 22:22:00,
2013-01-13 16:33:00,28.0,25.0,30.22,NNE,22,0.0,0.0,87,0.00,,,0.00,,2013-01-13 22:33:00,
2013-01-13 16:43:00,28.0,25.0,30.22,NNE,22,0.0,0.0,87,0.00,,,0.00,,2013-01-13 22:43:00,
2013-01-13 16:52:00,27.0,24.0,30.23,NNE,21,0.0,0.0,87,0.00,,,0.00,,2013-01-13 22:52:00,
2013-01-13 17:02:00,27.0,24.0,30.23,NNE,21,0.0,0.0,87,0.00,,,0.00,,2013-01-13 23:02:00,
2013-01-13 17:12:00,27.0,24.0,30.23,NNE,21,0.0,0.0,87,0.00,,,0.00,,2013-01-13 23:12:00,
2013-01-13 17:22:00,27.0,24.0,30.24,NNE,22,0.0,0.0,89,0.00,,,0.00,,2013-01-13 23:22:00,
2013-01-13 17:33:00,26.0,23.0,30.25,NNE,21,0.0,0.0,87,0.00,,,0.00,,2013-01-13 23:33:00,
2013-01-13 17:42:00,26.0,23.0,30.25,NNE,21,0.0,0.0,87,0.00,,,0.00,,2013-01-13 23:42:00,
2013-01-13 17:52:00,26.0,23.0,30.26,NNE,21,0.0,0.0,87,0.00,,,0.00,,2013-01-13 23:52:00,
2013-01-13 18:03:00,26.0,23.0,30.27,NNE,21,0.0,0.0,88,0.00,,,0.00,,2013-01-14 00:03:00,
2013-01-13 18:12:00,26.0,23.0,30.27,NNE,21,0.0,0.0,88,0.00,,,0.00,,2013-01-14 00:12:00,
2013-01-13 18:22:00,25.0,22.0,30.28,NNE,22,0.0,0.0,87,0.00,,,0.00,,2013-01-14 00:22:00,